Regional Weather Roundup
Issued by NWS

Home | Current Version | Previous Version | Graphics & Text | Print | Product List | Glossary Off
Versions: 1 2 3 4 5 6 7 8 9 10 11 12 13 14 15 16 17 18 19 20 21 22 23 24 25 26 27 28 29 30 31 32 33 34 35 36 37 38 39 40 41 42 43 44 45 46 47 48 49 50

000
ASUS43 KFSD 260410
RWRSD

WEATHER ROUNDUP FOR SOUTH DAKOTA
NATIONAL WEATHER SERVICE SIOUX FALLS SD
1100 PM CDT FRI JUL 25 2014

NOTE: "FAIR" INDICATES FEW OR NO CLOUDS BELOW 12,000 FEET WITH NO
SIGNIFICANT WEATHER AND/OR OBSTRUCTIONS TO VISIBILITY.


SDZ001>005-009-010-012>017-260500-
NORTHWEST AND NORTH CENTRAL SOUTH DAKOTA

CITY           SKY/WX    TMP DP  RH WIND       PRES   REMARKS
BUFFALO          N/A     71  49  45 W5        29.84R
FAITH            N/A     67  50  54 SE10      29.87S
MOBRIDGE         N/A     63  53  70 E6        29.83R
$$

SDZ012>016-024>037-041>051-057-063-072>074-260500-
SOUTHWEST AND SOUTH CENTRAL SOUTH DAKOTA

CITY           SKY/WX    TMP DP  RH WIND       PRES   REMARKS
RAPID CTY ARPT CLEAR     68  53  58 CALM      29.89S
PIERRE         PTCLDY    72  59  63 E6        29.86R
CUSTER         CLEAR     63  48  58 CALM      30.04R
ELLSWORTH AFB  CLEAR     71  54  54 SW3       29.89F
PHILIP         MOCLDY    74  49  41 E9        29.85R
PINE RIDGE     CLEAR     78  54  43 S16G24    29.85F
WINNER         FAIR      76  68  76 E10       29.86R
$$

SDZ004>011-016>023-039-040-260500-
NORTHEAST SOUTH DAKOTA

CITY           SKY/WX    TMP DP  RH WIND       PRES   REMARKS
ABERDEEN       CLEAR     60  58  92 CALM      29.85R
WATERTOWN      CLEAR     67  66  97 CALM      29.87R FOG
SISSETON         N/A     68  67  96 NW6       29.83R
$$

SDZ017-020-022-023-036>040-048>070-260500-
SOUTHEAST SOUTH DAKOTA

CITY           SKY/WX    TMP DP  RH WIND       PRES   REMARKS
SIOUX FALLS    MOCLDY    75  70  84 N7        29.84R
HURON          CLEAR     67  65  93 NE5       29.82F
CHAMBERLAIN    PTCLDY    71  66  85 CALM      29.86S
MITCHELL       PTCLDY    70  67  90 N5        29.83S
YANKTON        PTCLDY    73  72  94 NW6       29.82R
$$

ABBREVIATIONS USED IN REMARKS
   TC - TEMPERATURE IN CELSIUS
  WCI - WIND CHILL INDEX
   HX - HEAT INDEX
  VSB - VISIBILITY




USA.gov is the U.S. government's official web portal to all federal, state and local government web resources and services.